Regional Weather Roundup
Issued by NWS

Current Version | Previous Version | Text Only | Print | Product List | Glossary On
Versions: 1 2 3 4 5 6 7 8 9 10 11 12 13 14 15 16 17 18 19 20 21 22 23 24 25 26 27
000
ASUS42 KTBW 200717
RWRFL
FLORIDA REGIONAL WEATHER ROUNDUP
NATIONAL WEATHER SERVICE TAMPA BAY RUSKIN FL
300 AM EDT WED SEP 20 2017

NOTE: "FAIR" INDICATES FEW OR NO CLOUDS BELOW 12,000 FEET WITH NO
SIGNIFICANT WEATHER AND/OR OBSTRUCTIONS TO VISIBILITY.

FLZ001>010-012>015-112-114-115-200800-
PANHANDLE FLORIDA

CITY           SKY/WX    TMP DP  RH WIND       PRES   REMARKS
PENSACOLA      CLEAR     78  74  87 CALM      29.98F
PENSACOLA NAS  PTCLDY    75  73  93 CALM      29.98S
MILTON NAS     CLEAR     71  71 100 CALM      29.99
CRESTVIEW      CLEAR     73  71  93 CALM      30.00S
DUKE FIELD     FAIR      75  74  96 NW3       29.98F
VALPARAISO     MOCLDY    77  73  88 NW5       29.97F
MARY ESTHER    PTCLDY    76  72  88 CALM      29.96F
PANAMA CITY    FAIR      75  73  93 CALM      29.97S
TYNDALL AFB    PTCLDY    77  75  93 CALM      29.98S
APALACHICOLA   MOCLDY    77  76  96 CALM      29.98F

STATION/POSITION SKY/WX   TEMP    WIND        PRES    WAVE   SWELL
                          AIR SEA DIR/SP/G            HT/PER HT/PER
                          (F)     (DEG/KT/KT) (MB)    (FT/S) (FT/S)
30.1N   87.6W              82 83  240/  6/  8 1015.2S   1
29.2N   88.2W              83 85  210/  8/  8 1015.6
28.8N   86.0W              81 83  260/  2/  4 1015.2F   0
PANAMA CITY BEAC                  250/  7/  8 1015.4F
TOWER C                    81                 1015.8F
28.5N   84.5W              81 82  340/  6/  6 1015.0F   0

$$
FLZ011-016>038-118-127-128-134-139-239-200800-
NORTH FLORIDA

CITY           SKY/WX    TMP DP  RH WIND       PRES   REMARKS
MARIANNA       PTCLDY    74  72  93 S5        29.95F
TALLAHASSEE    CLOUDY    75  73  93 SW5       29.96F
PERRY          FOG       74  73  96 SE5       29.98F VSB 3/4
LIVE OAK       PTCLDY    73  73 100 CALM      29.99F
CROSS CITY     CLEAR     72  71  96 CALM      30.03F
LAKE CITY      FAIR      70  68  94 CALM      29.99F
GAINESVILLE    CLEAR    N/A N/A N/A CALM      30.02F
WILLISTON      CLEAR     70  70 100 CALM      29.99F
PALATKA        FAIR      68  68 100 CALM      29.99F
MAYPORT NAS    CLEAR     75  72  90 SW5       29.98F
JACKSONVILLE   CLEAR     72  71  97 CALM      29.98F
JAX NAS        CLEAR     77  71  82 SW3       29.99F
JAX CECIL      CLEAR     68  68 100 CALM      29.98F
FERNANDINA BEA FAIR      75  70  83 MISG      29.97F
ST AUGUSTINE   CLEAR     73  70  90 W5        29.99F
PALM COAST     FAIR      71  55  56 CALM      29.98F

STATION/POSITION SKY/WX   TEMP    WIND        PRES    WAVE   SWELL
                          AIR SEA DIR/SP/G            HT/PER HT/PER
                          (F)     (DEG/KT/KT) (MB)    (FT/S) (FT/S)
SHELL POINT      NOT AVBL
KEATON BEACH               81     290/  9/ 11 1014.6F
CEDAR KEY                  81     160/  9/ 10 1015.6F
FERNANDINA                    82  180/  2/  4 1016.1F
30.7N   81.3W                 81                N/A     3/13   2/13
MAYPORT                       82  230/  4/  5 1015.7F
31.4N   80.9W              80 80  180/ 12/ 14 1014.9F   3/12   3/12
ST AUGUSTINE               76 82  220/  3/  4 1015.3F

$$
FLZ040-043>046-052-053-057-058-063-144-200800-
INTERIOR CENTRAL FLORIDA

CITY           SKY/WX    TMP DP  RH WIND       PRES   REMARKS
OCALA          CLEAR     69  67  93 CALM      29.99F
THE VILLAGES     N/A     72  72 100 CALM      29.89F
LEESBURG       CLEAR     75  73  93 CALM      29.99F
SANFORD        CLEAR     74  71  91 CALM      29.97F
ORLANDO INTL   PTCLDY    75  73  93 CALM      29.98F
KISSIMMEE      CLEAR     75  72  90 CALM      29.99F
WINTER HAVEN   CLEAR     75  70  84 CALM      29.99F
LAKELAND       CLEAR     72  70  94 SE3       29.98F
SEBRING        FAIR      76  70  81 E3        29.96F
OKEECHOBEE     CLEAR     72  70  94 CALM      29.95F

$$
FLZ041-047-054-059-064-141-147-200800-
EAST CENTRAL FLORIDA

CITY           SKY/WX    TMP DP  RH WIND       PRES   REMARKS
DAYTONA BEACH  PTCLDY    74  73  97 CALM      29.98F
DELAND         CLEAR     72  70  94 CALM      29.98F
JFK SPACE CTR  PTCLDY    74  74 100 CALM      29.96S
CAPE CANAVERAL CLOUDY    80  73  79 E5        29.95F
PATRICK AFB    MOCLDY    79  77  94 VRB3      29.95F
MELBOURNE      CLOUDY    78  76  93 CALM      29.96F
VERO BEACH     CLOUDY    79  73  82 SE5       29.95F
FT PIERCE      PTCLDY    77  75  93 CALM      29.95F
STUART         CLOUDY    79  75  89 SE8       29.96F

STATION/POSITION SKY/WX   TEMP    WIND        PRES    WAVE   SWELL
                          AIR SEA DIR/SP/G            HT/PER HT/PER
                          (F)     (DEG/KT/KT) (MB)    (FT/S) (FT/S)
28.5N   80.2W              83 85   80/  8/ 12 1015.7F   5/10   5/10
28.9N   78.5W                 84   70/  2/  4 1014.7F   6/12   7/12
TRIDENT PIER                  83   50/  5/  7 1016.3F
28.4N   80.5W                 83                N/A     2/12   2/12
27.5N   80.2W                 82                N/A     5/12   3/12

$$
FLZ050-056-061-142-242-148-248-149-249-151-251-155-255-
160-260-200800-
WEST CENTRAL FLORIDA

CITY           SKY/WX    TMP DP  RH WIND       PRES   REMARKS
CRYSTAL RIVER  FAIR     N/A N/A N/A CALM      29.99F
INVERNESS      FAIR      70  70 100 CALM      29.99F
BROOKSVILLE    PTCLDY    69  68  96 CALM      29.99F
CLEARWATER AIR FAIR      77  70  78 E3        29.98S
ST PETE CLEARW CLEAR     78  72  81 CALM      29.97F
TAMPA INTL     CLEAR     79  70  74 SE3       29.98F
TAMPA EXEC     CLEAR     72  70  94 CALM      29.98F FOG
PLANT CITY     CLEAR     73  73 100 CALM      30.00F
MACDILL AFB    CLEAR     74  74 100 E3        29.97F
PETER O KNIGHT MOCLDY    77  73  88 E3        29.98S
ST PETERSBURG  CLEAR     80  73  79 SE10      29.96F
SARASOTA       CLEAR     75  72  90 NE6       29.95F
VENICE         FAIR      77  73  88 E8        29.96F

STATION/POSITION SKY/WX   TEMP    WIND        PRES    WAVE   SWELL
                          AIR SEA DIR/SP/G            HT/PER HT/PER
                          (F)     (DEG/KT/KT) (MB)    (FT/S) (FT/S)
27.3N   84.2W                 83                N/A     2/ 4
CLEARWATER BEACH              85  100/  3/  6 1015.4F
MIDDLE TAMPA BAY                   90/  7/ 10 1015.1F
VENICE                     78 84   80/  5/  8 1014.8F

$$
FLZ066-069-070-075>078-162-262-165-265-200800-
SOUTHWEST FLORIDA AND KEYS

CITY           SKY/WX    TMP DP  RH WIND       PRES   REMARKS
PUNTA GORDA    CLEAR     76  74  93 E7        29.97S
FT MYERS       CLEAR     78  76  93 E6        29.94F
SOUTHWEST INTL CLEAR     77  74  90 E8        29.94F
NAPLES         CLEAR     78  76  93 E6        29.93F
IMMOKALEE      FAIR      77  75  94 NE7       29.95F
MARATHON       PTCLDY    81  73  76 CALM      29.93F
KEY WEST NAS   CLEAR     82  78  88 CALM      29.93F
KEY WEST INTL  CLEAR     82  77  84 CALM      29.94F

STATION/POSITION SKY/WX   TEMP    WIND        PRES    WAVE   SWELL
                          AIR SEA DIR/SP/G            HT/PER HT/PER
                          (F)     (DEG/KT/KT) (MB)    (FT/S) (FT/S)
NAPLES           NOT AVBL
DRY TORTUGAS               82      CALM  /  1 1014.1F
SAND KEY                   81                 1014.4F
MOLASSES REEF              83     350/  1       N/A

$$
FLZ067-068-071>074-168-172>174-200800-
SOUTHEAST FLORIDA

CITY           SKY/WX    TMP DP  RH WIND       PRES   REMARKS
W PALM BEACH   MOCLDY    78  73  84 N3        29.95F
FT LAUDER-EXEC CLEAR     78  75  90 CALM      29.94F
FT LAUDERDALE  MOCLDY    78  77  96 CALM      29.93F
POMPANO BEACH  PTCLDY    78  77  96 CALM      29.94F
PEMBROKE PINES CLEAR     79  75  87 CALM      29.95F
OPA LOCKA      CLEAR     81  79  94 CALM      29.94F
MIAMI          MOCLDY    82  77  84 CALM      29.94F
WEST KENDALL   CLEAR     79  73  82 CALM      29.94F
HOMESTEAD      CLEAR     79  79 100 CALM      29.93F

STATION/POSITION SKY/WX   TEMP    WIND        PRES    WAVE   SWELL
                          AIR SEA DIR/SP/G            HT/PER HT/PER
                          (F)     (DEG/KT/KT) (MB)    (FT/S) (FT/S)
PORT EVERGLADES            82      CALM  /  1 1013.9F
VIRGINIA KEY                  86  260/  1/  2 1013.5F
LAKE WORTH                         10/  7/  8   N/A
FOWEY ROCKS                83 84  150/  4/  4 1014.4F
SETTLEMENT POINT           82      90/  5/  6 1014.0F

$$





USA.gov is the U.S. government's official web portal to all federal, state and local government web resources and services.